Weather History for Llano, TX

Change the Weather History Date:

Thursday, November 7, 2013

  Actual Average (KBMQ) Record (KBMQ)
Temperature  
Mean Temperature 50 °F -  
Max Temperature 64 °F 66 °F 84 °F (2005)
Min Temperature 35 °F 48 °F 37 °F (2002)
Degree Days  
Heating Degree Days 16    
Moisture  
Dew Point 37 °F    
Average Humidity 66    
Maximum Humidity 93    
Minimum Humidity 30    
Precipitation  
Precipitation 0.00 in - - ()
Sea Level Pressure  
Sea Level Pressure 30.46 in    
Wind  
Wind Speed 2 mph (NE)    
Max Wind Speed 9 mph    
Max Gust Speed 17 mph    
Visibility 10 miles    
Events      
Averages and records for this station are not official NWS values.
T = Trace of Precipitation, MM = Missing Value Source: NWS Daily Summary

Daily Weather History Graph

Daily Weather History Graph

Search for Another Location

Airport:

Trip Planner

Search our weather history database for the weather conditions in past years. The results will help you decide how hot, cold, wet, or windy it might be!

Date:

Astronomy

Nov. 07, 2013 Rise Set
Actual Time 6:54 AM CST 5:41 PM CST
Civil Twilight 6:29 AM CST 6:06 PM CST
Nautical Twilight 6:00 AM CST 6:35 PM CST
Astronomical Twilight 5:32 AM CST 7:04 PM CST
Moon 11:01 AM CST (11/7) 9:57 PM CST (11/7)
Length of Visible Light 11h 37m
Length of Day
10h 47m
Waxing Crescent, 23% of the Moon is Illuminated
Nov 7
Waxing Crescent
Nov 9
First Quarter
Nov 17
Full
Nov 25
Last Quarter
Dec 2
New

Hourly Weather History & Observations

Time (CST) Temp. Windchill Dew Point Humidity Pressure Visibility Wind Dir Wind Speed Gust Speed Precip Events Conditions
12:15 AM 46.4 °F - 37.4 °F 71% 30.41 in 10.0 mi Calm Calm - N/A   Clear
12:35 AM 46.4 °F - 37.4 °F 71% 30.41 in 10.0 mi Calm Calm - N/A   Clear
12:55 AM 46.4 °F 45.2 °F 35.6 °F 66% 30.41 in 10.0 mi North 3.5 mph - N/A   Clear
1:15 AM 44.6 °F 43.1 °F 35.6 °F 71% 30.41 in 10.0 mi North 3.5 mph - N/A   Clear
1:35 AM 42.8 °F 41.1 °F 35.6 °F 76% 30.42 in 10.0 mi North 3.5 mph - N/A   Clear
1:55 AM 42.8 °F 41.1 °F 35.6 °F 76% 30.42 in 10.0 mi North 3.5 mph - N/A   Clear
2:15 AM 44.6 °F - 35.6 °F 71% 30.42 in 10.0 mi Calm Calm - N/A   Clear
2:35 AM 39.2 °F - 33.8 °F 81% 30.42 in 10.0 mi Calm Calm - N/A   Clear
2:55 AM 37.4 °F - 35.6 °F 93% 30.42 in 10.0 mi Calm Calm - N/A   Clear
3:15 AM 37.4 °F - 33.8 °F 87% 30.42 in 10.0 mi Calm Calm - N/A   Clear
3:35 AM 39.2 °F - 33.8 °F 81% 30.43 in 10.0 mi Calm Calm - N/A   Clear
3:55 AM 39.2 °F 35.9 °F 33.8 °F 81% 30.44 in 10.0 mi NW 4.6 mph - N/A   Clear
4:15 AM 39.2 °F - 33.8 °F 81% 30.44 in 10.0 mi Calm Calm - N/A   Clear
4:35 AM 39.2 °F - 33.8 °F 81% 30.45 in 10.0 mi Calm Calm - N/A   Clear
4:55 AM 37.4 °F - 32.0 °F 81% 30.45 in 10.0 mi Calm Calm - N/A   Clear
5:15 AM 35.6 °F - 33.8 °F 93% 30.45 in 10.0 mi Calm Calm - N/A   Clear
5:35 AM 35.6 °F - 33.8 °F 93% 30.46 in 10.0 mi Calm Calm - N/A   Clear
5:55 AM 35.6 °F - 33.8 °F 93% 30.47 in 10.0 mi Calm Calm - N/A   Clear
6:15 AM 37.4 °F - 33.8 °F 87% 30.48 in 10.0 mi Calm Calm - N/A   Clear
6:35 AM 35.6 °F 32.8 °F 33.8 °F 93% 30.49 in 10.0 mi West 3.5 mph - N/A   Clear
6:55 AM 37.4 °F - 33.8 °F 87% 30.50 in 10.0 mi Calm Calm - N/A   Clear
7:15 AM 35.6 °F - 33.8 °F 93% 30.51 in 10.0 mi Calm Calm - N/A   Clear
7:35 AM 37.4 °F - 35.6 °F 93% 30.51 in 10.0 mi Calm Calm - N/A   Clear
7:55 AM 41.0 °F - 37.4 °F 87% 30.52 in 10.0 mi Calm Calm - N/A   Clear
8:15 AM 44.6 °F - 37.4 °F 76% 30.52 in 10.0 mi Calm Calm - N/A   Clear
8:35 AM 46.4 °F 45.2 °F 35.6 °F 66% 30.53 in 10.0 mi West 3.5 mph - N/A   Clear
8:55 AM 46.4 °F - 35.6 °F 66% 30.53 in 10.0 mi Calm Calm - N/A   Clear
9:15 AM 48.2 °F - 35.6 °F 62% 30.53 in 10.0 mi Calm Calm - N/A   Clear
9:35 AM 50.0 °F - 35.6 °F 58% 30.54 in 10.0 mi Calm Calm - N/A   Clear
9:55 AM 51.8 °F - 35.6 °F 54% 30.54 in 10.0 mi Calm Calm - N/A   Clear
10:15 AM 53.6 °F - 35.6 °F 51% 30.53 in 10.0 mi Calm Calm - N/A   Clear
10:35 AM 55.4 °F - 33.8 °F 44% 30.54 in 10.0 mi Calm Calm - N/A   Clear
10:55 AM 59.0 °F - 33.8 °F 39% 30.53 in 10.0 mi NE 8.1 mph - N/A   Clear
11:15 AM 59.0 °F - 32.0 °F 36% 30.53 in 10.0 mi East 6.9 mph - N/A   Clear
11:35 AM 60.8 °F - 32.0 °F 34% 30.52 in 10.0 mi East 9.2 mph - N/A   Clear
11:55 AM 62.6 °F - 32.0 °F 32% 30.51 in 10.0 mi ENE 8.1 mph 17.3 mph N/A   Clear
12:15 PM 62.6 °F - 32.0 °F 32% 30.50 in 10.0 mi East 8.1 mph - N/A   Clear
12:35 PM 64.4 °F - 32.0 °F 30% 30.50 in 4.0 mi ENE 8.1 mph 17.3 mph N/A   Haze
12:55 PM 64.4 °F - 32.0 °F 30% 30.48 in 9.0 mi ENE 6.9 mph - N/A   Clear
1:15 PM 62.6 °F - 32.0 °F 32% 30.47 in 8.0 mi ENE 8.1 mph - N/A   Clear
1:35 PM 64.4 °F - 32.0 °F 30% 30.47 in 7.0 mi ENE 9.2 mph - N/A   Clear
1:55 PM 64.4 °F - 32.0 °F 30% 30.45 in 10.0 mi NNE 6.9 mph - N/A   Clear
2:15 PM 64.4 °F - 33.8 °F 32% 30.45 in 10.0 mi ENE 8.1 mph - N/A   Clear
2:35 PM 64.4 °F - 33.8 °F 32% 30.44 in 10.0 mi ENE 5.8 mph - N/A   Clear
2:55 PM 64.4 °F - 33.8 °F 32% 30.44 in 10.0 mi ENE 6.9 mph - N/A   Clear
3:15 PM 62.6 °F - 33.8 °F 34% 30.43 in 10.0 mi NE 6.9 mph - N/A   Clear
3:35 PM 62.6 °F - 33.8 °F 34% 30.43 in 10.0 mi NE 5.8 mph - N/A   Clear
3:55 PM 62.6 °F - 33.8 °F 34% 30.42 in 10.0 mi ENE 5.8 mph - N/A   Clear
4:35 PM 60.8 °F - 35.6 °F 39% 30.44 in 10.0 mi NE 3.5 mph - N/A   Clear
4:55 PM 60.8 °F - 37.4 °F 42% 30.43 in 10.0 mi Calm Calm - N/A   Clear
5:15 PM 59.0 °F - 35.6 °F 42% 30.44 in 10.0 mi Calm Calm - N/A   Clear
5:35 PM 55.4 °F - 42.8 °F 63% 30.43 in 10.0 mi Calm Calm - N/A   Clear
5:55 PM 55.4 °F - 44.6 °F 67% 30.43 in 10.0 mi Calm Calm - N/A   Clear
6:15 PM 53.6 °F - 44.6 °F 72% 30.44 in 10.0 mi Calm Calm - N/A   Clear
6:35 PM 53.6 °F - 44.6 °F 72% 30.43 in 10.0 mi North 5.8 mph - N/A   Clear
6:55 PM 51.8 °F - 44.6 °F 76% 30.44 in 10.0 mi Calm Calm - N/A   Clear
7:15 PM 51.8 °F - 44.6 °F 76% 30.44 in 10.0 mi Calm Calm - N/A   Clear
7:35 PM 53.6 °F - 44.6 °F 72% 30.45 in 10.0 mi Calm Calm - N/A   Clear
7:55 PM 51.8 °F - 44.6 °F 76% 30.45 in 10.0 mi Calm Calm - N/A   Clear
8:15 PM 51.8 °F - 44.6 °F 76% 30.45 in 10.0 mi Calm Calm - N/A   Clear
8:35 PM 51.8 °F - 44.6 °F 76% 30.46 in 10.0 mi Calm Calm - N/A   Clear
8:55 PM 51.8 °F - 44.6 °F 76% 30.46 in 10.0 mi Calm Calm - N/A   Clear
9:15 PM 51.8 °F - 42.8 °F 71% 30.44 in 10.0 mi Calm Calm - N/A   Clear
9:35 PM 50.0 °F - 44.6 °F 82% 30.45 in 10.0 mi Calm Calm - N/A   Clear
9:55 PM 50.0 °F - 44.6 °F 82% 30.45 in 10.0 mi Calm Calm - N/A   Clear
10:15 PM 48.2 °F - 44.6 °F 87% 30.45 in 10.0 mi Calm Calm - N/A   Clear
10:35 PM 50.0 °F - 44.6 °F 82% 30.45 in 10.0 mi Calm Calm - N/A   Clear
10:55 PM 48.2 °F - 44.6 °F 87% 30.45 in 10.0 mi Calm Calm - N/A   Clear
11:15 PM 48.2 °F - 44.6 °F 87% 30.44 in 10.0 mi Calm Calm - N/A   Clear
11:35 PM 48.2 °F - 44.6 °F 87% 30.44 in 10.0 mi Calm Calm - N/A   Clear
11:55 PM 48.2 °F - 44.6 °F 87% 30.43 in 10.0 mi Calm Calm - N/A   Clear